FW5215 Weather Reports


time (UTC)temp
F
wind
direction
speed
knots
gust
knots
rain 1hr
in
rain 24hr
in
rain mn
in
humidity
%
barometer
mb
20260503071511 53 126 1.7 3.5 0.00 0.00 0.00 66 1004.1
20260503054512 54 113 0.0 1.7 0.00 0.00 0.00 63 1005.4
20260503051512 56 113 0.0 0.9 0.00 0.00 0.00 63 1005.6
20260503050024 56 113 0.9 1.7 0.00 0.00 0.00 56 1005.7
20260503044506 57 149 0.0 2.6 0.00 0.00 0.00 56 1005.6
20260503043115 58 147 0.0 1.7 0.00 0.00 0.00 55 1006.1
20260503041511 59 173 0.0 0.9 0.00 0.00 0.00 53 1006.2
20260503040009 59 238 0.0 5.2 0.00 0.00 0.00 54 1006.4
20260503034509 59 275 1.7 3.5 0.00 0.00 0.00 50 1006.6
20260503033005 60 263 1.7 7.0 0.00 0.00 0.00 49 1006.8
20260503031505 60 263 0.9 1.7 0.00 0.00 0.00 53 1006.9
20260503030115 60 242 0.0 2.6 0.00 0.00 0.00 50 1006.8
20260503024512 60 276 0.9 3.5 0.00 0.00 0.00 50 1006.9
20260503023008 60 216 0.9 3.5 0.00 0.00 0.00 56 1007.1
20260503021509 60 272 1.7 6.1 0.00 0.00 0.00 48 1006.9
20260503020006 60 279 0.0 4.3 0.00 0.00 0.00 51 1007.1
20260503014504 60 275 1.7 6.1 0.00 0.00 0.00 47 1007.2
20260503013022 60 272 2.6 7.8 0.00 0.00 0.00 47 1007.2
20260503011512 61 290 2.6 8.7 0.00 0.00 0.00 45 1007.0
20260503010011 61 195 0.0 3.5 0.00 0.00 0.00 45 1007.1
20260503004507 61 202 0.9 4.3 0.00 0.00 0.00 44 1007.2
20260503003004 61 199 0.0 2.6 0.00 0.00 0.00 47 1007.3
20260503001605 61 228 0.9 4.3 0.00 0.00 0.00 46 1007.6
20260503000014 61 217 0.9 4.3 0.00 0.00 0.00 45 1007.8
20260502234513 61 202 0.9 4.3 0.00 0.00 0.00 44 1007.9
20260502233014 61 196 0.9 4.3 0.00 0.00 0.00 44 1008.1
20260502231514 62 192 1.7 4.3 0.00 0.00 0.00 45 1008.3
20260502230012 62 265 2.6 7.0 0.00 0.00 0.00 41 1008.5
20260502224510 63 248 2.6 5.2 0.00 0.00 0.00 41 1008.7
20260502223006 64 271 2.6 7.8 0.00 0.00 0.00 41 1008.8
20260502221511 63 151 1.7 7.8 0.00 0.00 0.00 40 1009.1
20260502220013 62 219 3.5 7.8 0.00 0.00 0.00 41 1009.2
20260502214505 62 177 3.5 7.0 0.00 0.00 0.00 40 1009.4
20260502213105 61 271 3.5 6.1 0.00 0.00 0.00 45 1009.7
20260502211520 62 254 2.6 6.1 0.00 0.00 0.00 41 1009.9
20260502210011 61 203 3.5 8.7 0.00 0.00 0.00 42 1010.1
20260502204509 62 214 3.5 7.0 0.00 0.00 0.00 41 1010.3
20260502203007 61 283 3.5 7.0 0.00 0.00 0.00 43 1010.5
20260502201505 61 269 2.6 7.8 0.00 0.00 0.00 40 1010.8
20260502200105 62 259 2.6 6.1 0.00 0.00 0.00 42 1011.1
20260502194514 61 236 2.6 8.7 0.00 0.00 0.00 41 1011.3
20260502193014 61 249 2.6 6.1 0.00 0.00 0.00 41 1011.5
20260502191508 60 248 2.6 7.0 0.00 0.00 0.00 42 1011.9
20260502190011 60 217 1.7 6.1 0.00 0.00 0.00 41 1012.3
20260502184512 59 286 1.7 7.8 0.00 0.00 0.00 40 1012.5
20260502183007 58 278 4.3 7.8 0.00 0.00 0.00 39 1012.7
20260502181505 61 247 3.5 8.7 0.00 0.00 0.00 38 1012.8
20260502163008 59 253 2.6 7.0 0.00 0.00 0.00 36 1014.6
20260502161505 59 267 2.6 7.0 0.00 0.00 0.00 39 1014.8
20260502160108 58 242 1.7 4.3 0.00 0.00 0.00 39 1015.0
20260502123006 36 278 0.0 1.7 0.00 0.00 0.00 77 1016.3
20260502121508 35 242 0.0 1.7 0.00 0.00 0.00 81 1016.3
20260502120115 33 247 0.0 0.9 0.00 0.00 0.00 82 1016.3
20260502114510 31 247 0.0 1.7 0.00 0.00 0.00 84 1016.5
20260502113006 29 186 0.0 1.7 0.00 0.00 0.00 82 1016.3
20260502111604 29 180 0.0 0.0 0.00 0.00 0.00 80 1016.2
20260502110013 30 180 0.0 1.7 0.00 0.00 0.00 80 1016.2
20260502104530 30 184 0.0 0.9 0.00 0.00 0.00 79 1016.2
20260502103008 30 184 0.0 0.9 0.00 0.00 0.00 79 1016.1
20260502101505 30 184 0.0 1.7 0.00 0.00 0.00 80 1016.1
20260502091514 30 103 0.0 0.0 0.00 0.00 0.00 77 1016.2